Location: Lafig�re
(44.4503°N, 4.0357°E)
Time: 15:43:38
(UTC+00:00)

Meteor 1-24 Rocket - Pass Details

Date: 24 September 2020
Orbit: 790 x 927 km, 81.2° (Epoch: 25 October)

Event Time Altitude Azimuth Distance (km) Brightness Sun altitude
Rises 19:51:37 0° 347° (NNW) 3,387 7.4 -24.2°
Reaches altitude 10° 19:53:59 10° 346° (NNW) 2,468 6.6 -24.6°
Maximum altitude 19:59:35 75° 262° (W) 897 3.8 -25.5°
Enters shadow 20:01:43 40° 186° (S) 1,265 4.4 -25.8°
